Hourly Weather Bolshie Saly

Today, 20 June, Sunday

Time Temperature Precipitation Wind Pressure Humidity
00:00 +22°C° 0 mm 7 mps 754 mmHg 48%
01:00 +21°C° 0 mm 7 mps 754 mmHg 47%
02:00 +21°C° 0 mm 7 mps 754 mmHg 47%
03:00 +20°C° 0 mm 7 mps 754 mmHg 47%
04:00 +20°C° 0 mm 7 mps 754 mmHg 52%
05:00 +19°C° 0 mm 6 mps 754 mmHg 57%
06:00 +17°C° 0 mm 6 mps 754 mmHg 62%
07:00 +20°C° 0 mm 6 mps 754 mmHg 61%
08:00 +22°C° 0 mm 6 mps 754 mmHg 60%
09:00 +23°C° 0 mm 7 mps 754 mmHg 59%
10:00 +24°C° 0 mm 7 mps 753 mmHg 56%
11:00 +27°C° 0 mm 7 mps 753 mmHg 53%
12:00 +28°C° 0 mm 8 mps 753 mmHg 51%
13:00 +29°C° 0 mm 7 mps 753 mmHg 50%
14:00 +30°C° 0 mm 7 mps 753 mmHg 50%
15:00 +30°C° 0 mm 6 mps 753 mmHg 50%
16:00 +30°C° 0 mm 6 mps 752 mmHg 52%
17:00 +30°C° 0 mm 5 mps 752 mmHg 55%
18:00 +29°C° 0 mm 5 mps 751 mmHg 58%
19:00 +28°C° 0 mm 5 mps 751 mmHg 57%
20:00 +28°C° 0 mm 5 mps 751 mmHg 57%
21:00 +27°C° 0 mm 6 mps 751 mmHg 56%
22:00 +26°C° 0 mm 6 mps 751 mmHg 54%
23:00 +26°C° 0 mm 6 mps 751 mmHg 51%

Tomorrow, 21 June, Monday

Time Temperature Precipitation Wind Pressure Humidity
00:00 +24°C° 0 mm 6 mps 751 mmHg 49%
01:00 +23°C° 0 mm 5 mps 752 mmHg 49%
02:00 +22°C° 0 mm 5 mps 752 mmHg 49%
03:00 +22°C° 0 mm 5 mps 752 mmHg 48%
04:00 +21°C° 0 mm 5 mps 752 mmHg 53%
05:00 +21°C° 0 mm 5 mps 752 mmHg 57%
06:00 +20°C° 0 mm 5 mps 752 mmHg 61%
07:00 +22°C° 0 mm 5 mps 752 mmHg 59%
08:00 +23°C° 0 mm 6 mps 752 mmHg 57%
09:00 +26°C° 0 mm 6 mps 752 mmHg 54%
10:00 +27°C° 0 mm 6 mps 752 mmHg 52%
11:00 +29°C° 0 mm 7 mps 752 mmHg 49%
12:00 +30°C° 0 mm 7 mps 752 mmHg 46%
13:00 +32°C° 0 mm 7 mps 752 mmHg 46%
14:00 +33°C° 0 mm 7 mps 751 mmHg 45%
15:00 +34°C° 0 mm 6 mps 751 mmHg 45%
16:00 +33°C° 0 mm 6 mps 751 mmHg 46%
17:00 +32°C° 0 mm 6 mps 751 mmHg 48%
18:00 +32°C° 0 mm 6 mps 750 mmHg 49%
19:00 +29°C° 0 mm 6 mps 751 mmHg 50%
20:00 +28°C° 0 mm 5 mps 751 mmHg 50%
21:00 +27°C° 0 mm 5 mps 751 mmHg 51%
22:00 +26°C° 0 mm 5 mps 751 mmHg 48%
23:00 +26°C° 0 mm 5 mps 751 mmHg 45%

Day after tomorrow, 22 June, Tuesday

Time Temperature Precipitation Wind Pressure Humidity
00:00 +25°C° 0 mm 5 mps 751 mmHg 42%
01:00 +23°C° 0 mm 4 mps 752 mmHg 45%
02:00 +22°C° 0 mm 4 mps 752 mmHg 47%
03:00 +21°C° 0 mm 4 mps 752 mmHg 49%
04:00 +20°C° 0 mm 4 mps 752 mmHg 52%
05:00 +20°C° 0 mm 4 mps 752 mmHg 56%
06:00 +20°C° 0 mm 4 mps 752 mmHg 60%
07:00 +22°C° 0 mm 5 mps 752 mmHg 57%
08:00 +25°C° 0 mm 5 mps 752 mmHg 54%
09:00 +27°C° 0 mm 6 mps 752 mmHg 51%
10:00 +29°C° 0 mm 6 mps 752 mmHg 49%
11:00 +30°C° 0 mm 7 mps 752 mmHg 46%
12:00 +32°C° 0 mm 7 mps 752 mmHg 44%
13:00 +33°C° 0 mm 7 mps 752 mmHg 44%
14:00 +34°C° 0 mm 6 mps 751 mmHg 43%
15:00 +35°C° 0 mm 6 mps 751 mmHg 43%
16:00 +34°C° 0 mm 5 mps 751 mmHg 46%
17:00 +34°C° 0 mm 5 mps 750 mmHg 49%
18:00 +33°C° 0 mm 5 mps 750 mmHg 52%
19:00 +30°C° 0 mm 4 mps 750 mmHg 54%
20:00 +29°C° 0 mm 4 mps 751 mmHg 57%
21:00 +27°C° 0 mm 4 mps 751 mmHg 59%
22:00 +27°C° 0 mm 4 mps 751 mmHg 55%
23:00 +26°C° 0 mm 4 mps 751 mmHg 51%

23 June, Wednesday

Time Temperature Precipitation Wind Pressure Humidity
00:00 +25°C° 0 mm 4 mps 751 mmHg 46%
01:00 +25°C° 0 mm 4 mps 751 mmHg 47%
02:00 +23°C° 0 mm 4 mps 751 mmHg 47%
03:00 +22°C° 0 mm 4 mps 752 mmHg 47%
04:00 +22°C° 0 mm 4 mps 752 mmHg 51%
05:00 +22°C° 0 mm 3 mps 752 mmHg 55%
06:00 +21°C° 0 mm 3 mps 752 mmHg 59%
07:00 +24°C° 0 mm 3 mps 752 mmHg 57%
08:00 +26°C° 0 mm 3 mps 753 mmHg 55%
09:00 +27°C° 0 mm 4 mps 753 mmHg 52%
10:00 +29°C° 0 mm 4 mps 753 mmHg 49%
11:00 +30°C° 0 mm 4 mps 753 mmHg 46%
12:00 +33°C° 0 mm 5 mps 753 mmHg 42%
13:00 +34°C° 0 mm 5 mps 753 mmHg 42%
14:00 +34°C° 0 mm 5 mps 753 mmHg 42%
15:00 +35°C° 0 mm 5 mps 752 mmHg 41%
16:00 +34°C° 0 mm 5 mps 752 mmHg 44%
17:00 +33°C° 0 mm 6 mps 752 mmHg 48%
18:00 +33°C° 0 mm 6 mps 752 mmHg 51%
19:00 +32°C° 0 mm 6 mps 752 mmHg 50%
20:00 +30°C° 0 mm 6 mps 752 mmHg 49%
21:00 +28°C° 0 mm 6 mps 752 mmHg 49%
22:00 +27°C° 0 mm 6 mps 752 mmHg 49%
23:00 +26°C° 0 mm 5 mps 752 mmHg 50%

24 June, Thursday

Time Temperature Precipitation Wind Pressure Humidity
00:00 +25°C° 0 mm 4 mps 752 mmHg 51%
01:00 +25°C° 0 mm 4 mps 753 mmHg 51%
02:00 +23°C° 0 mm 4 mps 753 mmHg 51%
03:00 +22°C° 0 mm 4 mps 753 mmHg 51%
04:00 +22°C° 0 mm 4 mps 753 mmHg 53%
05:00 +21°C° 0 mm 4 mps 753 mmHg 56%
06:00 +21°C° 0 mm 3 mps 753 mmHg 58%
07:00 +23°C° 0 mm 4 mps 753 mmHg 54%
08:00 +26°C° 0 mm 4 mps 754 mmHg 50%
09:00 +28°C° 0 mm 4 mps 754 mmHg 46%
10:00 +29°C° 0 mm 4 mps 754 mmHg 42%
11:00 +30°C° 0 mm 4 mps 754 mmHg 39%
12:00 +33°C° 0 mm 4 mps 754 mmHg 36%
13:00 +33°C° 0 mm 4 mps 754 mmHg 36%
14:00 +34°C° 0 mm 4 mps 754 mmHg 35%
15:00 +34°C° 0 mm 4 mps 754 mmHg 35%
16:00 +34°C° 0 mm 3 mps 753 mmHg 39%
17:00 +33°C° 0 mm 3 mps 753 mmHg 42%
18:00 +32°C° 0 mm 2 mps 753 mmHg 46%
19:00 +30°C° 0.1 mm 3 mps 753 mmHg 48%
20:00 +29°C° 0.1 mm 3 mps 753 mmHg 50%
21:00 +27°C° 0.1 mm 4 mps 752 mmHg 52%
22:00 +27°C° 0 mm 4 mps 752 mmHg 51%
23:00 +27°C° 0 mm 4 mps 752 mmHg 50%

25 June, Friday

Time Temperature Precipitation Wind Pressure Humidity
00:00 +27°C° 0 mm 5 mps 752 mmHg 49%
01:00 +26°C° 0 mm 5 mps 752 mmHg 50%
02:00 +26°C° 0 mm 5 mps 752 mmHg 51%
03:00 +26°C° 0 mm 6 mps 751 mmHg 53%
04:00 +25°C° 0 mm 5 mps 752 mmHg 57%
05:00 +23°C° 0 mm 5 mps 752 mmHg 61%
06:00 +23°C° 0 mm 4 mps 752 mmHg 66%
07:00 +25°C° 0 mm 4 mps 753 mmHg 61%
08:00 +27°C° 0 mm 4 mps 753 mmHg 57%
09:00 +29°C° 0 mm 4 mps 753 mmHg 52%
10:00 +30°C° 0 mm 4 mps 753 mmHg 50%
11:00 +32°C° 0 mm 4 mps 753 mmHg 48%
12:00 +32°C° 0 mm 4 mps 753 mmHg 47%
13:00 +33°C° 0 mm 4 mps 753 mmHg 43%
14:00 +34°C° 0 mm 4 mps 753 mmHg 40%
15:00 +35°C° 0 mm 4 mps 752 mmHg 37%
16:00 +35°C° 0 mm 3 mps 752 mmHg 41%
17:00 +35°C° 0 mm 2 mps 752 mmHg 45%
18:00 +33°C° 0 mm 1 mps 752 mmHg 48%
19:00 +32°C° 0 mm 2 mps 752 mmHg 51%
20:00 +30°C° 0 mm 2 mps 752 mmHg 54%
21:00 +28°C° 0 mm 3 mps 752 mmHg 57%
22:00 +28°C° 0 mm 3 mps 752 mmHg 56%
23:00 +28°C° 0 mm 4 mps 751 mmHg 55%
Show more